QPF
0.02 0.03 0.03 0.02 0.02 0.02 0.03 0.03 0.04 0.03 0.03 0.03 0.04 0.04 0.05 0.06 0.07 0.07 0.06 0.07 0.08 0.10 0.09 0.08 0.07 0.06 0.07 0.06 0.04 0.04 0.04 0.05 0.07 0.10 0.10 0.08 0.08 0.08
0.02 0.02 0.02 0.02 0.02 0.02 0.02 0.02 0.03 0.04 0.03 0.04 0.05 0.05 0.06 0.06 0.08 0.08 0.08 0.10 0.13 0.14 0.11 0.08 0.05 0.04 0.04 0.04 0.04 0.03 0.03 0.03 0.04 0.04 0.04 0.04 0.04 0.05
0.03 0.02 0.02 0.02 0.02 0.03 0.03 0.03 0.04 0.04 0.04 0.04 0.04 0.04 0.03 0.03 0.05 0.10 0.10 0.10 0.11 0.11 0.10 0.07 0.05 0.04 0.03 0.03 0.04 0.04 0.04 0.04 0.04 0.04 0.04 0.03 0.03 0.04
0.01 0.02 0.02 0.02 0.02 0.02 0.03 0.03 0.05 0.05 0.04 0.04 0.03 0.03 0.02 0.02 0.03 0.05 0.08 0.12 0.12 0.10 0.10 0.08 0.05 0.03 0.02 0.03 0.04 0.05 0.05 0.05 0.04 0.04 0.04 0.03 0.03 0.03
0.01 0.02 0.02 0.03 0.03 0.03 0.03 0.03 0.04 0.05 0.05 0.04 0.03 0.02 0.02 0.03 0.04 0.05 0.07 0.09 0.10 0.11 0.11 0.09 0.06 0.04 0.04 0.05 0.06 0.06 0.06 0.06 0.06 0.06 0.05 0.04 0.04 0.04
0.03 0.03 0.03 0.03 0.02 0.03 0.04 0.04 0.05 0.05 0.05 0.04 0.03 0.03 0.04 0.04 0.04 0.05 0.06 0.07 0.07 0.07 0.09 0.09 0.09 0.10 0.10 0.10 0.09 0.09 0.09 0.08 0.09 0.10 0.08 0.06 0.05 0.05
0.03 0.03 0.04 0.04 0.04 0.04 0.03 0.03 0.04 0.04 0.05 0.04 0.03 0.04 0.04 0.03 0.04 0.04 0.04 0.05 0.07 0.05 0.07 0.08 0.08 0.07 0.06 0.06 0.06 0.06 0.06 0.05 0.05 0.08 0.11 0.11 0.09 0.08
0.02 0.02 0.03 0.04 0.04 0.04 0.04 0.04 0.03 0.03 0.03 0.03 0.03 0.02 0.02 0.02 0.03 0.03 0.03 0.04 0.06 0.07 0.08 0.09 0.08 0.07 0.06 0.06 0.06 0.05 0.04 0.03 0.03 0.05 0.08 0.11 0.11 0.11
0.03 0.03 0.03 0.03 0.03 0.03 0.02 0.02 0.03 0.04 0.03 0.04 0.03 0.02 0.02 0.03 0.04 0.03 0.02 0.02 0.02 0.04 0.06 0.07 0.07 0.07 0.06 0.07 0.07 0.05 0.03 0.02 0.02 0.03 0.05 0.08 0.10 0.11
0.03 0.03 0.03 0.03 0.03 0.03 0.03 0.02 0.03 0.03 0.04 0.04 0.04 0.04 0.04 0.04 0.03 0.03 0.02 0.02 0.02 0.03 0.04 0.04 0.05 0.05 0.04 0.04 0.04 0.04 0.04 0.03 0.02 0.02 0.03 0.04 0.06 0.07
0.04 0.04 0.03 0.03 0.03 0.03 0.03 0.02 0.02 0.03 0.03 0.03 0.04 0.04 0.04 0.03 0.03 0.03 0.02 0.02 0.01 0.02 0.03 0.03 0.03 0.04 0.04 0.03 0.03 0.03 0.03 0.02 0.02 0.02 0.02 0.03 0.04 0.05
0.04 0.04 0.04 0.04 0.04 0.04 0.03 0.03 0.02 0.03 0.03 0.03 0.03 0.03 0.03 0.04 0.04 0.04 0.03 0.02 0.01 0.02 0.03 0.04 0.05 0.03 0.03 0.03 0.02 0.02 0.03 0.03 0.04 0.04 0.04 0.05 0.06 0.06
0.06 0.04 0.03 0.04 0.04 0.03 0.02 0.02 0.03 0.04 0.04 0.04 0.04 0.05 0.04 0.03 0.03 0.04 0.04 0.03 0.02 0.01 0.02 0.02 0.03 0.05 0.05 0.04 0.03 0.02 0.03 0.03 0.04 0.04 0.05 0.06 0.07 0.07
0.04 0.04 0.03 0.03 0.05 0.04 0.02 0.02 0.03 0.04 0.04 0.03 0.03 0.03 0.02 0.02 0.02 0.03 0.03 0.03 0.02 0.02 0.02 0.02 0.03 0.04 0.04 0.03 0.03 0.02 0.01 0.02 0.02 0.03 0.04 0.05 0.07 0.07
0.02 0.03 0.03 0.03 0.03 0.04 0.03 0.03 0.02 0.02 0.02 0.02 0.02 0.02 0.02 0.02 0.02 0.02 0.02 0.01 0.01 0.01 0.02 0.02 0.03 0.03 0.03 0.02 0.01 0.01 0.01 0.02 0.04 0.05 0.04 0.04 0.04 0.05
0.04 0.03 0.03 0.04 0.04 0.03 0.03 0.03 0.02 0.02 0.02 0.02 0.02 0.02 0.02 0.02 0.01 0.01 0.02 0.02 0.02 0.02 0.02 0.02 0.02 0.02 0.02 0.01 0.01 0.01 0.01 0.02 0.06 0.07 0.06 0.05 0.05 0.05
0.06 0.05 0.05 0.05 0.05 0.04 0.04 0.04 0.03 0.02 0.02 0.01 0.02 0.02 0.02 0.01 0.01 0.01 0.01 0.01 0.01 0.01 0.01 0.01 0.01 0.01 0.01 0.01 0.00 0.00 0.01 0.01 0.04 0.06 0.03 0.03 0.03 0.02
0.06 0.05 0.05 0.04 0.04 0.03 0.03 0.03 0.03 0.03 0.03 0.02 0.01 0.01 0.01 0.01 0.01 0.01 0.01 0.01 0.01 0.01 0.02 0.02 0.01 0.01 0.01 0.00 0.00 0.01 0.01 0.01 0.02 0.03 0.03 0.03 0.03 0.02
0.05 0.05 0.05 0.05 0.04 0.04 0.04 0.04 0.04 0.05 0.05 0.03 0.02 0.02 0.02 0.02 0.02 0.02 0.02 0.02 0.02 0.01 0.01 0.01 0.01 0.01 0.01 0.00 0.01 0.01 0.01 0.01 0.01 0.02 0.02 0.02 0.03 0.03
0.05 0.06 0.05 0.04 0.04 0.03 0.03 0.04 0.04 0.04 0.04 0.03 0.02 0.02 0.02 0.02 0.02 0.03 0.03 0.02 0.02 0.01 0.01 0.01 0.01 0.01 0.02 0.02 0.01 0.01 0.01 0.01 0.01 0.02 0.02 0.02 0.02 0.03
0.07 0.06 0.06 0.05 0.04 0.04 0.04 0.04 0.04 0.04 0.04 0.03 0.03 0.02 0.02 0.02 0.02 0.02 0.02 0.02 0.02 0.01 0.01 0.01 0.01 0.02 0.02 0.02 0.03 0.02 0.01 0.02 0.02 0.03 0.03 0.03 0.03 0.03
0.07 0.07 0.05 0.05 0.06 0.05 0.04 0.03 0.04 0.04 0.04 0.03 0.04 0.04 0.04 0.03 0.03 0.02 0.01 0.01 0.01 0.01 0.01 0.01 0.01 0.02 0.02 0.03 0.03 0.03 0.03 0.04 0.04 0.04 0.04 0.04 0.05 0.04
0.08 0.06 0.05 0.04 0.05 0.06 0.05 0.05 0.04 0.04 0.04 0.04 0.05 0.05 0.04 0.04 0.04 0.02 0.02 0.02 0.02 0.02 0.02 0.02 0.02 0.02 0.02 0.02 0.02 0.03 0.05 0.06 0.06 0.06 0.05 0.06 0.06 0.05
MSLP
1015.30 1015.50 1015.73 1015.97 1016.18 1016.32 1016.37 1016.31 1016.12 1015.83 1015.45 1015.02 1014.55 1014.09 1013.66 1013.27 1012.94 1012.68 1012.49 1012.37 1012.30 1012.29 1012.33 1012.38 1012.45 1012.51 1012.56 1012.59 1012.61 1012.63 1012.67 1012.76 1012.89 1013.08 1013.32 1013.62 1013.94 1014.28
1014.61 1014.78 1014.99 1015.22 1015.45 1015.65 1015.77 1015.80 1015.73 1015.55 1015.28 1014.93 1014.53 1014.11 1013.69 1013.29 1012.93 1012.62 1012.39 1012.22 1012.12 1012.09 1012.10 1012.13 1012.18 1012.21 1012.22 1012.20 1012.15 1012.09 1012.03 1012.00 1012.01 1012.08 1012.22 1012.43 1012.69 1013.00
1013.95 1014.09 1014.28 1014.51 1014.75 1014.99 1015.18 1015.30 1015.33 1015.26 1015.10 1014.86 1014.55 1014.19 1013.81 1013.43 1013.07 1012.76 1012.50 1012.31 1012.19 1012.13 1012.11 1012.12 1012.13 1012.12 1012.06 1011.96 1011.81 1011.63 1011.44 1011.26 1011.13 1011.06 1011.08 1011.19 1011.38 1011.66
1013.34 1013.45 1013.62 1013.85 1014.10 1014.36 1014.60 1014.79 1014.91 1014.94 1014.89 1014.75 1014.53 1014.26 1013.95 1013.63 1013.31 1013.01 1012.77 1012.57 1012.44 1012.36 1012.32 1012.29 1012.25 1012.17 1012.04 1011.83 1011.56 1011.24 1010.90 1010.57 1010.28 1010.06 1009.95 1009.97 1010.11 1010.38
1012.76 1012.86 1013.02 1013.23 1013.49 1013.76 1014.02 1014.25 1014.43 1014.54 1014.58 1014.54 1014.42 1014.25 1014.03 1013.79 1013.54 1013.31 1013.10 1012.93 1012.81 1012.73 1012.66 1012.59 1012.49 1012.34 1012.11 1011.80 1011.40 1010.93 1010.44 1009.95 1009.52 1009.17 1008.95 1008.89 1009.00 1009.27
1012.20 1012.29 1012.44 1012.64 1012.89 1013.15 1013.42 1013.67 1013.89 1014.05 1014.15 1014.19 1014.17 1014.10 1013.98 1013.85 1013.69 1013.55 1013.41 1013.30 1013.21 1013.14 1013.07 1012.97 1012.81 1012.59 1012.27 1011.85 1011.33 1010.74 1010.12 1009.51 1008.95 1008.51 1008.21 1008.10 1008.19 1008.49
1011.61 1011.71 1011.86 1012.05 1012.28 1012.53 1012.79 1013.04 1013.26 1013.45 1013.59 1013.69 1013.75 1013.78 1013.78 1013.75 1013.72 1013.68 1013.64 1013.60 1013.57 1013.53 1013.46 1013.34 1013.16 1012.88 1012.49 1012.00 1011.40 1010.72 1010.01 1009.32 1008.70 1008.19 1007.86 1007.73 1007.83 1008.16
1010.96 1011.08 1011.24 1011.44 1011.66 1011.90 1012.14 1012.37 1012.58 1012.78 1012.94 1013.09 1013.22 1013.33 1013.43 1013.51 1013.59 1013.67 1013.73 1013.79 1013.82 1013.83 1013.79 1013.68 1013.49 1013.19 1012.78 1012.25 1011.62 1010.92 1010.19 1009.47 1008.83 1008.32 1007.99 1007.87 1007.99 1008.35
1010.23 1010.38 1010.57 1010.79 1011.02 1011.26 1011.50 1011.71 1011.92 1012.11 1012.28 1012.46 1012.63 1012.80 1012.98 1013.16 1013.34 1013.52 1013.68 1013.82 1013.93 1014.00 1014.01 1013.93 1013.77 1013.50 1013.11 1012.61 1012.01 1011.34 1010.65 1009.98 1009.38 1008.91 1008.62 1008.53 1008.68 1009.05
1009.40 1009.62 1009.87 1010.13 1010.40 1010.67 1010.91 1011.13 1011.33 1011.51 1011.69 1011.87 1012.07 1012.28 1012.51 1012.75 1013.00 1013.25 1013.48 1013.70 1013.88 1014.01 1014.08 1014.06 1013.96 1013.76 1013.45 1013.03 1012.53 1011.96 1011.37 1010.80 1010.29 1009.90 1009.67 1009.62 1009.79 1010.16
1008.52 1008.81 1009.14 1009.48 1009.82 1010.13 1010.41 1010.65 1010.86 1011.05 1011.23 1011.40 1011.60 1011.81 1012.06 1012.32 1012.60 1012.88 1013.16 1013.42 1013.65 1013.84 1013.97 1014.04 1014.02 1013.92 1013.73 1013.45 1013.09 1012.67 1012.23 1011.79 1011.41 1011.12 1010.96 1010.95 1011.12 1011.46
1007.60 1007.99 1008.41 1008.85 1009.28 1009.67 1010.01 1010.29 1010.53 1010.72 1010.89 1011.06 1011.23 1011.43 1011.65 1011.89 1012.16 1012.44 1012.72 1012.99 1013.25 1013.48 1013.67 1013.81 1013.90 1013.93 1013.88 1013.76 1013.57 1013.33 1013.05 1012.77 1012.53 1012.34 1012.25 1012.27 1012.43 1012.73
1006.68 1007.16 1007.69 1008.23 1008.75 1009.23 1009.64 1009.99 1010.26 1010.47 1010.65 1010.79 1010.94 1011.09 1011.26 1011.45 1011.67 1011.90 1012.15 1012.41 1012.67 1012.92 1013.16 1013.38 1013.57 1013.72 1013.81 1013.86 1013.84 1013.78 1013.67 1013.55 1013.43 1013.33 1013.30 1013.34 1013.48 1013.73
1005.78 1006.34 1006.95 1007.58 1008.20 1008.76 1009.25 1009.65 1009.97 1010.21 1010.38 1010.52 1010.62 1010.73 1010.83 1010.96 1011.10 1011.27 1011.46 1011.67 1011.91 1012.17 1012.44 1012.71 1012.99 1013.25 1013.48 1013.67 1013.81 1013.90 1013.94 1013.94 1013.93 1013.91 1013.92 1013.97 1014.09 1014.28
1004.89 1005.50 1006.17 1006.87 1007.55 1008.18 1008.73 1009.19 1009.54 1009.81 1009.99 1010.12 1010.20 1010.25 1010.30 1010.35 1010.41 1010.51 1010.63 1010.79 1010.99 1011.24 1011.52 1011.84 1012.17 1012.52 1012.85 1013.15 1013.41 1013.61 1013.76 1013.86 1013.92 1013.95 1013.99 1014.05 1014.15 1014.30
1004.02 1004.64 1005.33 1006.05 1006.76 1007.42 1008.01 1008.50 1008.89 1009.18 1009.38 1009.50 1009.57 1009.59 1009.59 1009.59 1009.60 1009.63 1009.69 1009.80 1009.96 1010.18 1010.46 1010.79 1011.16 1011.55 1011.94 1012.31 1012.64 1012.91 1013.13 1013.28 1013.39 1013.46 1013.51 1013.58 1013.67 1013.82
1003.15 1003.74 1004.40 1005.10 1005.80 1006.45 1007.04 1007.55 1007.96 1008.27 1008.49 1008.63 1008.70 1008.73 1008.71 1008.69 1008.66 1008.65 1008.67 1008.74 1008.87 1009.06 1009.32 1009.64 1010.01 1010.41 1010.82 1011.21 1011.56 1011.86 1012.10 1012.28 1012.41 1012.50 1012.57 1012.66 1012.77 1012.93
1002.30 1002.82 1003.41 1004.04 1004.67 1005.29 1005.85 1006.34 1006.76 1007.09 1007.34 1007.52 1007.62 1007.67 1007.68 1007.66 1007.64 1007.62 1007.63 1007.68 1007.78 1007.95 1008.18 1008.48 1008.82 1009.19 1009.57 1009.94 1010.28 1010.57 1010.80 1010.98 1011.12 1011.23 1011.33 1011.44 1011.59 1011.79
1001.47 1001.89 1002.38 1002.91 1003.46 1004.00 1004.51 1004.98 1005.39 1005.74 1006.03 1006.25 1006.41 1006.51 1006.57 1006.60 1006.61 1006.61 1006.63 1006.68 1006.77 1006.91 1007.11 1007.36 1007.66 1007.98 1008.31 1008.63 1008.92 1009.17 1009.37 1009.54 1009.68 1009.81 1009.94 1010.10 1010.30 1010.57
1000.68 1001.00 1001.37 1001.79 1002.24 1002.69 1003.14 1003.56 1003.96 1004.33 1004.65 1004.93 1005.16 1005.33 1005.47 1005.56 1005.63 1005.68 1005.73 1005.78 1005.87 1005.99 1006.16 1006.36 1006.59 1006.84 1007.09 1007.34 1007.57 1007.77 1007.94 1008.09 1008.23 1008.38 1008.55 1008.77 1009.04 1009.37
999.95 1000.17 1000.44 1000.75 1001.09 1001.45 1001.83 1002.21 1002.60 1002.97 1003.33 1003.67 1003.97 1004.22 1004.44 1004.61 1004.75 1004.85 1004.94 1005.02 1005.11 1005.21 1005.33 1005.47 1005.63 1005.80 1005.97 1006.14 1006.29 1006.43 1006.56 1006.70 1006.84 1007.02 1007.23 1007.51 1007.85 1008.25
999.30 999.44 999.62 999.83 1000.07 1000.36 1000.67 1001.01 1001.38 1001.76 1002.15 1002.54 1002.90 1003.24 1003.53 1003.78 1003.98 1004.14 1004.27 1004.37 1004.46 1004.54 1004.62 1004.70 1004.79 1004.87 1004.96 1005.04 1005.11 1005.20 1005.29 1005.40 1005.55 1005.74 1006.00 1006.33 1006.73 1007.19
998.75 998.82 998.92 999.06 999.23 999.44 999.70 1000.01 1000.36 1000.74 1001.16 1001.58 1001.99 1002.38 1002.74 1003.05 1003.31 1003.52 1003.68 1003.80 1003.88 1003.94 1003.98 1004.01 1004.02 1004.03 1004.03 1004.02 1004.03 1004.05 1004.09 1004.18 1004.33 1004.54 1004.82 1005.19 1005.63 1006.14
Thickness
5747 5746 5745 5744 5743 5741 5738 5734 5726 5720 5720 5725 5727 5730 5729 5729 5729 5729 5728 5727 5726 5724 5721 5719 5717 5716 5714 5712 5711 5709 5708 5707 5705 5704 5702 5700 5698 5695
5746 5744 5742 5742 5741 5739 5737 5734 5731 5725 5720 5723 5724 5725 5725 5725 5724 5724 5724 5723 5721 5719 5717 5715 5713 5712 5710 5708 5707 5705 5704 5702 5701 5699 5698 5695 5693 5691
5744 5742 5740 5739 5738 5736 5734 5732 5729 5725 5720 5720 5721 5721 5720 5720 5719 5719 5718 5717 5715 5713 5712 5710 5708 5707 5705 5703 5702 5700 5699 5697 5696 5694 5692 5690 5688 5686
5741 5739 5737 5737 5734 5733 5731 5728 5726 5724 5720 5715 5715 5715 5715 5715 5714 5713 5712 5711 5709 5708 5706 5705 5704 5702 5700 5699 5697 5695 5693 5691 5689 5688 5686 5684 5682 5680
5738 5736 5735 5733 5731 5730 5728 5726 5724 5723 5719 5714 5712 5711 5710 5710 5708 5707 5706 5705 5704 5702 5701 5699 5698 5697 5695 5693 5691 5689 5688 5686 5684 5682 5680 5677 5676 5674
5736 5735 5733 5731 5729 5727 5725 5723 5720 5717 5714 5710 5707 5706 5705 5704 5702 5699 5697 5697 5696 5696 5695 5693 5692 5690 5688 5687 5685 5684 5682 5681 5678 5676 5674 5672 5670 5668
5734 5733 5731 5730 5729 5726 5724 5720 5717 5713 5709 5705 5702 5701 5699 5697 5696 5694 5691 5689 5688 5688 5687 5686 5685 5683 5681 5680 5679 5677 5676 5675 5673 5670 5667 5666 5664 5662
5729 5729 5728 5726 5725 5723 5722 5720 5716 5711 5706 5702 5698 5696 5695 5694 5692 5690 5687 5683 5680 5681 5679 5677 5677 5675 5674 5673 5672 5671 5669 5668 5666 5664 5661 5659 5657 5655
5725 5724 5724 5723 5721 5719 5717 5715 5713 5710 5707 5702 5697 5695 5693 5692 5689 5685 5682 5680 5677 5676 5673 5670 5670 5668 5668 5667 5665 5664 5663 5661 5659 5657 5655 5653 5650 5648
5722 5720 5718 5717 5716 5713 5711 5709 5707 5705 5703 5701 5698 5695 5694 5691 5687 5684 5681 5676 5674 5672 5669 5664 5663 5662 5663 5661 5659 5657 5656 5655 5653 5651 5648 5647 5645 5642
5717 5716 5714 5712 5711 5708 5705 5702 5701 5700 5700 5698 5696 5693 5691 5688 5685 5679 5674 5670 5667 5666 5664 5660 5659 5657 5656 5656 5655 5653 5650 5648 5646 5645 5643 5640 5638 5635
5710 5710 5709 5708 5705 5703 5700 5697 5695 5694 5693 5692 5690 5688 5685 5683 5681 5677 5672 5667 5663 5660 5661 5657 5655 5651 5649 5650 5649 5647 5645 5642 5641 5639 5637 5635 5632 5628
5704 5704 5703 5702 5699 5697 5695 5693 5692 5690 5687 5685 5683 5681 5679 5677 5675 5673 5671 5667 5661 5659 5659 5656 5652 5648 5645 5643 5643 5642 5640 5637 5635 5633 5631 5629 5626 5623
5699 5699 5698 5696 5694 5692 5690 5690 5688 5685 5681 5679 5676 5674 5672 5671 5670 5669 5667 5665 5663 5659 5658 5654 5650 5646 5641 5638 5636 5636 5634 5632 5630 5628 5626 5623 5620 5617
5695 5694 5691 5689 5688 5686 5685 5684 5681 5678 5675 5672 5670 5669 5668 5667 5665 5663 5661 5659 5657 5656 5653 5651 5648 5644 5640 5636 5632 5630 5628 5627 5625 5623 5620 5617 5615 5612
5687 5685 5684 5682 5681 5680 5678 5677 5675 5672 5670 5667 5666 5665 5663 5661 5659 5656 5653 5651 5649 5648 5647 5645 5643 5640 5636 5633 5629 5626 5624 5621 5620 5618 5615 5612 5610 5607
5679 5676 5674 5673 5672 5671 5670 5669 5668 5665 5663 5661 5660 5658 5656 5654 5652 5650 5647 5644 5641 5640 5638 5637 5636 5634 5632 5628 5624 5622 5619 5616 5615 5613 5609 5606 5605 5602
5671 5669 5668 5667 5666 5665 5664 5663 5661 5659 5658 5656 5654 5652 5650 5648 5645 5643 5641 5638 5635 5634 5632 5630 5627 5624 5622 5621 5620 5617 5613 5611 5609 5607 5604 5600 5598 5597
5665 5664 5663 5661 5661 5659 5659 5657 5655 5654 5653 5650 5648 5646 5644 5642 5639 5636 5634 5631 5629 5627 5626 5623 5620 5616 5612 5611 5613 5612 5608 5605 5602 5599 5597 5594 5592 5592
5659 5658 5657 5657 5655 5654 5653 5652 5650 5648 5646 5643 5641 5639 5637 5635 5633 5630 5628 5625 5623 5620 5618 5616 5614 5611 5609 5608 5606 5605 5603 5599 5596 5593 5590 5587 5585 5584
5653 5652 5652 5652 5650 5649 5647 5645 5643 5641 5639 5636 5634 5632 5629 5627 5625 5624 5621 5619 5616 5614 5611 5610 5610 5608 5604 5600 5597 5596 5595 5593 5591 5587 5583 5579 5575 5573
5648 5647 5646 5645 5644 5643 5640 5638 5636 5634 5632 5630 5627 5625 5622 5619 5617 5615 5613 5611 5609 5607 5606 5604 5602 5598 5594 5591 5589 5588 5586 5584 5582 5580 5577 5575 5570 5567
5643 5641 5640 5639 5638 5636 5634 5631 5629 5627 5625 5623 5621 5618 5615 5612 5610 5608 5606 5604 5601 5599 5597 5594 5592 5589 5586 5584 5581 5579 5577 5574 5571 5569 5567 5567 5566 5564